Time,TemperatureF,DewpointF,PressureIn,WindDirection,WindDirectionDegrees,WindSpeedMPH,WindSpeedGustMPH,Humidity,HourlyPrecipIn,Conditions,Clouds,dailyrainin,SoftwareType,DateUTC
2013-07-23 00:02:00,69.0,-99.9,29.90,ESE,120,2.0,4.0,-999,-99.99,,,-99.99,,2013-07-23 04:02:00,
2013-07-23 00:43:00,69.0,-99.9,29.88,ESE,117,2.0,4.0,-999,-99.99,,,-99.99,,2013-07-23 04:43:00,
2013-07-23 01:02:00,69.0,-99.9,29.87,ESE,104,4.0,5.0,-999,-99.99,,,-99.99,,2013-07-23 05:02:00,
2013-07-23 01:33:00,69.0,-99.9,29.85,SE,124,3.0,4.0,-999,-99.99,,,-99.99,,2013-07-23 05:33:00,
2013-07-23 01:44:00,69.0,-99.9,29.85,SE,136,5.0,6.0,-999,-99.99,,,-99.99,,2013-07-23 05:44:00,
2013-07-23 01:52:00,69.0,-99.9,29.85,SSE,149,2.0,5.0,-999,-99.99,,,-99.99,,2013-07-23 05:52:00,
2013-07-23 02:33:00,70.0,-99.9,29.83,SSE,153,1.0,4.0,-999,-99.99,,,-99.99,,2013-07-23 06:33:00,
2013-07-23 02:42:00,70.0,-99.9,29.82,SE,140,3.0,4.0,-999,-99.99,,,-99.99,,2013-07-23 06:42:00,
2013-07-23 03:02:00,71.0,-99.9,29.81,SSE,165,4.0,6.0,-999,-99.99,,,-99.99,,2013-07-23 07:02:00,
2013-07-23 03:33:00,71.0,-99.9,29.80,SE,141,3.0,7.0,-999,-99.99,,,-99.99,,2013-07-23 07:33:00,
2013-07-23 03:42:00,71.0,-99.9,29.80,SE,137,4.0,5.0,-999,-99.99,,,-99.99,,2013-07-23 07:42:00,
2013-07-23 04:22:00,71.0,-99.9,29.78,SE,146,3.0,6.0,-999,-99.99,,,-99.99,,2013-07-23 08:22:00,
2013-07-23 04:43:00,71.0,-99.9,29.78,SSE,156,2.0,6.0,-999,-99.99,,,-99.99,,2013-07-23 08:43:00,
2013-07-23 05:22:00,70.0,-99.9,29.77,SSE,165,2.0,6.0,-999,-99.99,,,-99.99,,2013-07-23 09:22:00,
2013-07-23 05:43:00,70.0,-99.9,29.76,SSE,162,2.0,7.0,-999,-99.99,,,-99.99,,2013-07-23 09:43:00,
2013-07-23 07:02:00,70.0,-99.9,29.75,South,176,3.0,8.0,-999,-99.99,,,-99.99,,2013-07-23 11:02:00,
2013-07-23 07:43:00,71.0,-99.9,29.74,South,176,5.0,8.0,-999,-99.99,,,-99.99,,2013-07-23 11:43:00,
2013-07-23 08:02:00,73.0,-99.9,29.73,South,171,7.0,10.0,-999,-99.99,,,-99.99,,2013-07-23 12:02:00,
2013-07-23 08:22:00,73.0,-99.9,29.73,SSE,168,5.0,10.0,-999,-99.99,,,-99.99,,2013-07-23 12:22:00,
2013-07-23 08:43:00,73.0,-99.9,29.72,South,180,9.0,14.0,-999,-99.99,,,-99.99,,2013-07-23 12:43:00,
2013-07-23 09:02:00,73.0,-99.9,29.72,South,173,7.0,12.0,-999,-99.99,,,-99.99,,2013-07-23 13:02:00,
2013-07-23 10:12:00,75.0,-99.9,29.67,South,185,7.0,13.0,-999,-99.99,,,-99.99,,2013-07-23 14:12:00,
2013-07-23 10:22:00,76.0,-99.9,29.68,South,185,6.0,14.0,-999,-99.99,,,-99.99,,2013-07-23 14:22:00,
2013-07-23 10:44:00,75.0,-99.9,29.68,SSW,201,6.0,15.0,-999,-99.99,,,-99.99,,2013-07-23 14:44:00,
2013-07-23 11:11:00,75.0,-99.9,29.69,South,190,8.0,13.0,-999,-99.99,,,-99.99,,2013-07-23 15:11:00,
2013-07-23 11:32:00,76.0,-99.9,29.68,SSW,209,10.0,16.0,-999,-99.99,,,-99.99,,2013-07-23 15:32:00,
2013-07-23 12:01:00,77.0,-99.9,29.67,SSW,201,10.0,16.0,-999,-99.99,,,-99.99,,2013-07-23 16:01:00,
2013-07-23 12:12:00,78.0,-99.9,29.67,SSW,208,11.0,15.0,-999,-99.99,,,-99.99,,2013-07-23 16:12:00,
2013-07-23 12:22:00,78.0,-99.9,29.67,SW,214,8.0,15.0,-999,-99.99,,,-99.99,,2013-07-23 16:22:00,
2013-07-23 12:43:00,79.0,-99.9,29.66,SSW,208,11.0,21.0,-999,-99.99,,,-99.99,,2013-07-23 16:43:00,
2013-07-23 13:42:00,79.0,-99.9,29.65,SW,220,14.0,19.0,-999,-99.99,,,-99.99,,2013-07-23 17:42:00,
2013-07-23 14:04:00,79.0,-99.9,29.64,SSW,206,10.0,19.0,-999,-99.99,,,-99.99,,2013-07-23 18:04:00,
2013-07-23 14:36:00,79.0,-99.9,29.63,SSW,211,12.0,20.0,-999,-99.99,,,-99.99,,2013-07-23 18:36:00,
2013-07-23 14:49:00,79.0,-99.9,29.63,SW,221,11.0,20.0,-999,-99.99,,,-99.99,,2013-07-23 18:49:00,
2013-07-23 15:03:00,79.0,-99.9,29.62,SSW,213,10.0,20.0,-999,-99.99,,,-99.99,,2013-07-23 19:03:00,
2013-07-23 15:28:00,79.0,-99.9,29.62,SSW,197,11.0,20.0,-999,-99.99,,,-99.99,,2013-07-23 19:28:00,
2013-07-23 15:49:00,79.0,-99.9,29.62,SSW,206,13.0,19.0,-999,-99.99,,,-99.99,,2013-07-23 19:49:00,
2013-07-23 16:07:00,79.0,-99.9,29.62,SSW,207,12.0,22.0,-999,-99.99,,,-99.99,,2013-07-23 20:07:00,
2013-07-23 17:05:00,79.0,-99.9,29.61,SW,223,9.0,19.0,-999,-99.99,,,-99.99,,2013-07-23 21:05:00,
2013-07-23 17:48:00,79.0,-99.9,29.61,SW,222,9.0,19.0,-999,-99.99,,,-99.99,,2013-07-23 21:48:00,
2013-07-23 18:06:00,78.0,-99.9,29.60,SW,221,10.0,20.0,-999,-99.99,,,-99.99,,2013-07-23 22:06:00,
2013-07-23 18:24:00,78.0,-99.9,29.60,SW,223,11.0,19.0,-999,-99.99,,,-99.99,,2013-07-23 22:24:00,
2013-07-23 19:06:00,78.0,-99.9,29.60,SW,220,11.0,19.0,-999,-99.99,,,-99.99,,2013-07-23 23:06:00,
2013-07-23 20:00:00,75.0,-99.9,29.61,SW,216,6.0,13.0,-999,-99.99,,,-99.99,,2013-07-24 00:00:00,
2013-07-23 20:34:00,76.0,-99.9,29.62,SW,218,9.0,14.0,-999,-99.99,,,-99.99,,2013-07-24 00:34:00,
2013-07-23 20:50:00,76.0,-99.9,29.62,SSW,211,6.0,13.0,-999,-99.99,,,-99.99,,2013-07-24 00:50:00,
2013-07-23 21:25:00,75.0,-99.9,29.62,SSW,209,6.0,11.0,-999,-99.99,,,-99.99,,2013-07-24 01:25:00,
2013-07-23 22:06:00,74.0,-99.9,29.62,SW,218,6.0,11.0,-999,-99.99,,,-99.99,,2013-07-24 02:06:00,
2013-07-23 22:49:00,74.0,-99.9,29.63,SSW,212,6.0,12.0,-999,-99.99,,,-99.99,,2013-07-24 02:49:00,
2013-07-23 23:06:00,74.0,-99.9,29.63,SW,214,6.0,9.0,-999,-99.99,,,-99.99,,2013-07-24 03:06:00,
2013-07-23 23:13:00,74.0,-99.9,29.63,SW,223,7.0,11.0,-999,-99.99,,,-99.99,,2013-07-24 03:13:00,
2013-07-23 23:24:00,74.0,-99.9,29.63,SW,221,6.0,10.0,-999,-99.99,,,-99.99,,2013-07-24 03:24:00,
2013-07-23 23:47:00,74.0,-99.9,29.63,SSW,208,5.0,11.0,-999,-99.99,,,-99.99,,2013-07-24 03:47:00,